TimeEST,TemperatureF,Dew PointF,Humidity,Sea Level PressureIn,VisibilityMPH,Wind Direction,Wind SpeedMPH,Gust SpeedMPH,PrecipitationIn,Events,Conditions,WindDirDegrees,DateUTC
12:18 AM,26.6,23.0,86,29.93,2.0,NW,10.4,-,N/A,Snow,Light Snow,320,2013-02-06 05:18:00
12:38 AM,24.8,21.2,86,29.94,3.0,NW,10.4,18.4,N/A,Snow,Light Snow,320,2013-02-06 05:38:00
12:58 AM,24.8,21.2,86,29.95,10.0,NNW,9.2,-,N/A,Snow,Light Snow,330,2013-02-06 05:58:00
1:18 AM,24.8,19.4,80,29.96,10.0,NW,9.2,-,N/A,,Overcast,320,2013-02-06 06:18:00
1:38 AM,24.8,17.6,74,29.97,10.0,NW,10.4,-,N/A,,Overcast,320,2013-02-06 06:38:00
2:18 AM,24.8,15.8,69,30.01,10.0,NW,9.2,18.4,N/A,,Overcast,320,2013-02-06 07:18:00
2:38 AM,23.0,14.0,68,30.02,10.0,NW,10.4,17.3,N/A,,Overcast,320,2013-02-06 07:38:00
2:58 AM,23.0,14.0,68,30.03,10.0,NW,9.2,-,N/A,,Scattered Clouds,310,2013-02-06 07:58:00
3:18 AM,21.2,12.2,68,30.04,10.0,NW,6.9,-,N/A,,Clear,310,2013-02-06 08:18:00
3:38 AM,19.4,12.2,74,30.05,10.0,WNW,5.8,-,N/A,,Clear,300,2013-02-06 08:38:00
3:58 AM,19.4,12.2,74,30.06,10.0,WNW,4.6,-,N/A,,Clear,300,2013-02-06 08:58:00
5:18 AM,15.8,12.2,86,30.10,10.0,WNW,3.5,-,N/A,,Clear,290,2013-02-06 10:18:00
5:38 AM,12.2,8.6,85,30.12,10.0,Calm,Calm,-,N/A,,Scattered Clouds,0,2013-02-06 10:38:00
5:58 AM,8.6,6.8,92,30.13,10.0,Calm,Calm,-,N/A,,Scattered Clouds,0,2013-02-06 10:58:00
6:18 AM,10.4,6.8,85,30.14,10.0,Calm,Calm,-,N/A,,Clear,0,2013-02-06 11:18:00
7:18 AM,6.8,5.0,92,30.17,10.0,Calm,Calm,-,N/A,,Clear,0,2013-02-06 12:18:00
7:58 AM,3.2,-0.4,85,30.19,10.0,Calm,Calm,-,N/A,,Clear,0,2013-02-06 12:58:00
8:18 AM,6.8,3.2,85,30.20,10.0,Calm,Calm,-,N/A,,Clear,0,2013-02-06 13:18:00
8:38 AM,8.6,6.8,92,30.21,10.0,Calm,Calm,-,N/A,,Clear,0,2013-02-06 13:38:00
8:58 AM,14.0,12.2,93,30.22,10.0,Calm,Calm,-,N/A,,Clear,0,2013-02-06 13:58:00
9:18 AM,17.6,14.0,86,30.23,10.0,Calm,Calm,-,N/A,,Clear,0,2013-02-06 14:18:00
9:38 AM,19.4,12.2,74,30.24,10.0,WNW,4.6,-,N/A,,Clear,300,2013-02-06 14:38:00
9:58 AM,21.2,10.4,63,30.24,10.0,NW,3.5,-,N/A,,Clear,320,2013-02-06 14:58:00
10:18 AM,21.2,10.4,63,30.25,10.0,Calm,Calm,-,N/A,,Clear,0,2013-02-06 15:18:00
10:38 AM,23.0,8.6,54,30.25,10.0,Calm,Calm,-,N/A,,Clear,0,2013-02-06 15:38:00
10:58 AM,23.0,8.6,54,30.25,10.0,Calm,Calm,-,N/A,,Clear,0,2013-02-06 15:58:00
11:18 AM,23.0,10.4,59,30.25,10.0,Calm,Calm,-,N/A,,Clear,0,2013-02-06 16:18:00
11:38 AM,24.8,12.2,59,30.26,10.0,SE,3.5,-,N/A,,Clear,140,2013-02-06 16:38:00
11:58 AM,24.8,12.2,59,30.26,10.0,Calm,Calm,-,N/A,,Clear,0,2013-02-06 16:58:00
12:18 PM,26.6,10.4,51,30.26,10.0,WSW,5.8,-,N/A,,Clear,240,2013-02-06 17:18:00
12:38 PM,26.6,12.2,55,30.27,10.0,WNW,5.8,-,N/A,,Clear,300,2013-02-06 17:38:00
12:58 PM,26.6,12.2,55,30.27,10.0,NW,8.1,-,N/A,,Clear,320,2013-02-06 17:58:00
1:18 PM,26.6,12.2,55,30.27,10.0,WSW,3.5,-,N/A,,Clear,240,2013-02-06 18:18:00
1:38 PM,26.6,12.2,55,30.27,10.0,Calm,Calm,-,N/A,,Clear,0,2013-02-06 18:38:00
1:58 PM,26.6,14.0,59,30.27,10.0,NW,6.9,-,N/A,,Clear,310,2013-02-06 18:58:00
2:18 PM,28.4,14.0,55,30.27,10.0,NNW,3.5,-,N/A,,Clear,340,2013-02-06 19:18:00
2:38 PM,28.4,14.0,55,30.26,10.0,Calm,Calm,-,N/A,,Scattered Clouds,0,2013-02-06 19:38:00
2:58 PM,28.4,14.0,55,30.26,10.0,Calm,Calm,-,N/A,,Clear,0,2013-02-06 19:58:00
3:18 PM,28.4,14.0,55,30.25,10.0,West,4.6,-,N/A,,Clear,260,2013-02-06 20:18:00
3:38 PM,28.4,14.0,55,30.26,10.0,NNW,4.6,-,N/A,,Scattered Clouds,330,2013-02-06 20:38:00
3:58 PM,30.2,14.0,51,30.26,10.0,Calm,Calm,-,N/A,,Scattered Clouds,0,2013-02-06 20:58:00
4:18 PM,30.2,15.8,55,30.25,10.0,South,5.8,-,N/A,,Clear,180,2013-02-06 21:18:00
4:38 PM,28.4,15.8,59,30.23,10.0,SSE,9.2,-,N/A,,Clear,160,2013-02-06 21:38:00
4:58 PM,28.4,15.8,59,30.26,10.0,SSE,9.2,-,N/A,,Clear,150,2013-02-06 21:58:00
5:18 PM,26.6,15.8,64,30.25,10.0,SSE,8.1,-,N/A,,Clear,150,2013-02-06 22:18:00
5:38 PM,24.8,15.8,69,30.27,10.0,South,6.9,-,N/A,,Clear,180,2013-02-06 22:38:00
5:58 PM,24.8,14.0,64,30.29,10.0,SSE,5.8,-,N/A,,Clear,160,2013-02-06 22:58:00
6:18 PM,23.0,14.0,68,30.30,10.0,SSE,4.6,-,N/A,,Clear,160,2013-02-06 23:18:00
6:38 PM,23.0,14.0,68,30.30,10.0,SSE,4.6,-,N/A,,Clear,160,2013-02-06 23:38:00
6:58 PM,23.0,15.8,74,30.30,10.0,South,4.6,-,N/A,,Clear,170,2013-02-06 23:58:00
7:18 PM,23.0,15.8,74,30.30,10.0,SSE,5.8,-,N/A,,Clear,160,2013-02-07 00:18:00
7:38 PM,23.0,15.8,74,30.30,10.0,SSE,3.5,-,N/A,,Clear,160,2013-02-07 00:38:00
7:58 PM,23.0,15.8,74,30.30,10.0,SSE,4.6,-,N/A,,Clear,160,2013-02-07 00:58:00
8:18 PM,21.2,15.8,80,30.30,10.0,SSE,4.6,-,N/A,,Clear,160,2013-02-07 01:18:00
8:38 PM,21.2,15.8,80,30.30,10.0,South,4.6,-,N/A,,Clear,170,2013-02-07 01:38:00
9:58 PM,21.2,15.8,80,30.27,10.0,SSE,6.9,-,N/A,,Mostly Cloudy,160,2013-02-07 02:58:00
11:18 PM,23.0,15.8,74,30.26,10.0,South,3.5,-,N/A,,Overcast,190,2013-02-07 04:18:00
11:38 PM,23.0,15.8,74,30.26,10.0,Calm,Calm,-,N/A,,Overcast,0,2013-02-07 04:38:00
11:58 PM,23.0,17.6,80,30.27,10.0,Calm,Calm,-,N/A,,Overcast,0,2013-02-07 04:58:00